Location: Christmas Bore
(22.9667°S, 115.7167°E)
Time: 23:16:59
(UTC+00:00)

Daily predictions for brighter satellites

Satellite Brightness Start Highest point End
(mag) Time Altitude Azimuth Time Altitude Azimuth Time Altitude Azimuth
Cosmos 1908 3.1 12:01:16 10° NNW 12:04:07 55° W 12:07:01 10° S
COSMOS 2428 3.6 12:00:06 10° SSW 12:05:34 48° WNW 12:11:00 10° N
NOAA 6 4.4 12:00:55 10° S 12:06:04 67° WSW 12:11:09 10° NNW
Delta 7925 Rocket 3.0 12:01:45 10° WNW 12:06:27 77° NNE 12:10:26 15° ESE
Meteor 1-31 Rocket 3.0 12:04:28 10° SSE 12:07:45 38° E 12:08:58 28° NE
Meteor 1-11 Rocket 3.9 12:05:56 10° NNE 12:11:20 50° E 12:16:42 10° SSE
Cosmos 923 Rocket 3.9 12:06:19 10° N 12:11:26 65° ENE 12:16:39 10° SSE
FUSE 4.4 12:07:20 10° W 12:12:25 46° NNW 12:15:04 26° NE
Cosmos 1818 4.5 12:08:42 10° S 12:13:32 33° ESE 12:15:44 24° ENE
Cosmos 1271 Rocket 3.0 12:11:02 10° SSE 12:14:13 36° E 12:14:35 35° E
Cosmos 1300 3.3 12:17:55 24° SE 12:17:55 24° SE 12:19:26 10° SSE
Cosmos 2082 3.6 12:15:09 10° N 12:20:47 68° ENE 12:26:28 10° SSE
Cosmos 1766 4.1 12:19:56 10° NNW 12:23:06 41° W 12:26:19 10° S
Cosmos 494 Rocket 4.5 12:22:26 31° NE 12:23:44 36° E 12:28:25 10° SE
SL-24 R/B 4.3 12:21:22 19° N 12:24:35 73° W 12:28:54 10° SSW
SWIFT 3.2 12:23:33 10° NW 12:25:35 25° NNW 12:25:35 25° NNW
Cosmos 1975 2.6 12:30:06 29° NNW 12:31:51 79° W 12:35:35 10° S
SJ-6B 3.9 12:28:55 10° S 12:32:15 39° WSW 12:35:35 10° NW
SL-14 R/B 3.0 12:30:08 10° S 12:33:55 83° E 12:34:36 57° NNE
USA 229 4.0 12:29:17 10° SW 12:35:05 50° WNW 12:38:42 21° N
USA 229 DEB 4.0 12:29:22 10° SW 12:35:11 50° WNW 12:38:47 21° N
SL-16 R/B 3.5 12:31:34 10° SSE 12:36:06 24° ESE 12:36:50 23° ESE
CZ-4C R/B 4.3 12:32:20 10° NW 12:41:07 48° WSW 12:49:04 10° SSE
NATO 3D Rocket 4.4 12:38:01 10° NW 12:41:34 31° N 12:41:34 31° N
Cosmos 1680 Rocket 3.5 12:37:33 10° NNW 12:42:50 84° WSW 12:48:11 10° SSE
Cosmos 1980 4.2 12:37:37 10° SSW 12:43:08 55° WNW 12:46:22 24° N
Cosmos 1844 Rocket 3.6 12:47:02 31° ESE 12:47:02 31° ESE 12:50:54 10° SE
Cosmos 2219 4.2 12:42:57 10° NW 12:48:27 48° WSW 12:53:59 10° S
Cosmos 2263 Rocket 4.3 12:49:27 10° WNW 12:54:06 26° WSW 12:58:48 10° S
Cosmos 2237 Rocket 3.0 12:49:51 10° SSW 12:55:15 45° WNW 12:58:04 26° NNW
CZ-4B R/B 3.8 12:51:09 10° SSE 12:55:17 38° ESE 12:55:17 38° ESE
OAO 3 Rocket 3.8 12:55:50 10° SW 13:00:21 44° SSE 13:00:51 42° SE
Cosmos 2184 Rocket 4.0 13:00:43 53° ENE 13:01:19 56° E 13:07:23 10° SSE
CZ-4B DEB 4.0 12:57:18 10° SSE 13:02:46 81° ENE 13:03:53 58° N
ATLAS 3B R/B 4.0 12:59:09 10° SW 13:04:51 32° WNW 13:08:45 19° NNW
GPS 2-17 Rocket1 4.1 13:01:04 10° WNW 13:03:37 33° WNW 13:03:37 33° WNW
CZ-4 R/B 2.0 13:03:53 10° S 13:07:39 49° WSW 13:07:51 48° W
SPOT 5 3.2 13:02:51 10° S 13:08:10 71° WSW 13:09:59 41° NNW
MOS 1 4.3 13:11:12 10° SSE 13:16:15 62° ESE 13:16:15 62° ESE
ADEOS 3.5 13:15:30 10° SSE 13:20:28 80° S 13:20:28 80° S
OAO 2 Rocket 4.1 13:31:40 10° WSW 13:35:16 47° WSW 13:35:16 47° WSW
Terra 3.1 13:32:19 10° SSE 13:35:02 35° SSE 13:35:02 35° SSE
Aurora 2 Rocket 4.2 13:42:21 10° W 13:51:04 87° NNW 13:52:22 71° ENE
BREEZE-M DEB (TANK) 4.3 13:57:19 65° SW 13:57:28 65° SW 14:09:26 10° SE
ERS-1 Rocket 4.3 13:57:25 10° S 14:01:08 37° SW 14:01:08 37° SW
SL-16 R/B 3.9 14:15:08 10° SW 14:18:42 27° WSW 14:18:42 27° WSW
Okean O Rocket 4.3 14:25:04 10° SSW 14:26:29 17° SSW 14:26:29 17° SSW
Cosmos 2082 Rocket 4.4 17:11:27 10° S 17:13:36 21° SSE 17:13:36 21° SSE
Resurs 1-4 Rocket 4.2 17:37:37 24° SSE 17:37:37 24° SSE 17:40:02 10° S
USA 215 4.1 17:35:56 10° SSE 17:40:29 46° SSE 17:40:29 46° SSE
ACS3 Solar Sail 3.3 17:52:34 28° E 17:53:08 29° ESE 17:58:16 10° SSE
CZ-2C R/B 4.4 18:04:41 10° S 18:07:16 26° SSW 18:07:16 26° SSW
CENTAUR R/B 3.5 18:24:35 53° WSW 18:24:38 53° WSW 18:32:17 10° SSE
Iridium 4 Rocket 4.4 18:29:03 52° S 18:29:03 52° S 18:33:26 10° S
Lacrosse 4 Rocket 4.2 18:31:39 13° S 18:31:39 13° S 18:32:13 10° S
Sakura Rocket 4.5 18:38:03 55° ENE 18:38:03 55° ENE 18:45:05 10° ESE
ALOS 4.3 18:41:14 20° SSW 18:41:14 20° SSW 18:42:41 10° SSW
Cosmos 2369 Rocket 4.0 18:40:28 21° SW 18:40:28 21° SW 18:43:12 10° SSW
ATLAS 2A CENTAUR R/B 4.3 18:40:51 49° W 18:44:08 83° S 19:26:47 10° E
ADEOS II 3.3 18:52:38 32° SW 18:52:38 32° SW 18:55:33 10° SSW
CZ-2D R/B 3.9 18:56:56 21° SW 18:56:56 21° SW 18:58:57 10° SSW
Tsikada Rocket 4.0 18:50:47 10° S 18:56:52 69° WSW 18:56:52 69° WSW
Hubble Space Telescope 2.5 19:04:16 26° E 19:04:16 26° E 19:06:03 10° ESE
Okean 1 Rocket 3.7 19:03:10 56° SE 19:03:10 56° SE 19:06:56 10° SSE
Cosmos 1464 Rocket 4.3 19:02:39 44° NNE 19:04:34 65° E 19:10:54 10° SSE
SeaSat 1 4.3 19:09:59 19° SW 19:09:59 19° SW 19:11:25 10° SW
MOS 1-B Rocket 4.0 19:08:34 34° NNE 19:11:15 75° ESE 19:16:54 10° S
H-2A R/B 2.3 19:15:03 56° WSW 19:15:03 56° WSW 19:19:46 10° SSW
Resurs 1-4 Rocket 4.4 19:18:39 10° SW 19:18:39 10° SW 19:18:39 10° SW
Cosmos 1461 3.8 19:17:25 37° SE 19:17:25 37° SE 19:19:43 10° SSE
Cosmos 1315 Rocket 4.4 19:16:05 26° ENE 19:16:41 27° E 19:19:54 10° SE
ATLAS 2AS CENTAUR R/B 2.7 19:14:17 10° SSW 19:21:43 83° WNW 19:28:59 10° NNE
MOZ.5/SAFIR/RUBIN 5/SL-8 3.6 19:17:22 10° S 19:22:07 85° WSW 19:22:20 81° NW
Cosmos 2058 4.0 19:18:39 10° SSW 19:20:59 33° SSW 19:20:59 33° SSW
ADEOS Rocket 3.6 19:23:18 42° W 19:23:18 42° W 19:29:05 10° SSW
CZ-3A R/B 4.4 19:25:44 10° NE 19:25:50 10° NE 19:26:34 10° ENE
Okean 2 Rocket 3.9 19:28:25 39° SW 19:28:25 39° SW 19:31:52 10° S
Sich 1 Rocket 4.0 19:32:15 46° WSW 19:32:15 46° WSW 19:36:00 10° S
ACS3 Solar Sail 2.7 19:36:34 29° W 19:36:34 29° W 19:40:59 10° SW
Cosmos 2034 Rocket 4.0 19:34:10 26° N 19:37:50 81° E 19:44:05 10° S
SL-08 RB Rocket 4.4 19:35:56 10° NNE 19:40:10 53° ESE 19:44:34 10° S
Cosmos 44 3.5 19:39:18 10° SSW 19:43:30 56° ESE 19:47:39 10° NE
Cosmos 1536 Rocket 3.6 19:42:20 10° SSW 19:46:44 57° W 19:47:26 50° NW
NOSS 3-2 (C) 4.4 19:41:42 30° NW 19:47:03 76° WSW 19:55:54 10° SSE
Cosmos 1455 Rocket 3.0 19:50:32 45° NNW 19:51:45 66° W 19:56:08 10° S
Spot 2 4.5 19:48:55 10° S 19:52:41 38° WSW 19:52:55 38° W
H-2A R/B 3.9 19:50:08 10° SSW 19:52:49 22° WSW 19:52:49 22° WSW
ARGOS 3.3 19:57:12 24° NNW 20:00:07 49° W 20:05:20 10° SSW
Cosmos 1833 4.2 19:59:46 10° SSW 20:05:17 57° WNW 20:10:46 10° N
Yuri Rocket 3.5 20:03:21 14° WSW 20:07:12 72° SSE 20:12:58 10° E
FALCON 9 R/B 3.8 19:54:18 10° W 20:07:40 40° SSW 20:12:19 10° SE
ASC 2 Rocket 3.1 20:08:33 31° WNW 20:10:28 66° NNE 20:15:35 10° E
Cosmos 1503 Rocket 4.1 20:15:44 11° N 20:20:42 83° ENE 20:26:02 10° SSE
Meteor 1-27 4.4 20:20:10 15° NNW 20:24:35 51° W 20:30:05 10° S
CZ-2C R/B 3.0 20:21:33 16° NNW 20:24:39 32° W 20:28:47 10° SW
H-2A R/B 3.5 20:27:44 10° N 20:31:27 46° W 20:35:14 10° SSW
Cosmos 1697 Rocket 2.7 20:26:03 10° NNW 20:31:42 89° ENE 20:37:24 10° SSE
Cosmos 1777 Rocket 4.1 20:27:47 13° NNW 20:32:20 59° WSW 20:37:30 10° S
Cosmos 1354 Rocket 4.3 20:27:25 10° N 20:32:36 71° ENE 20:37:53 10° SSE
ATLAS CENTAUR R/B 3.6 20:31:11 10° S 20:33:41 22° ESE 20:36:12 10° ENE
Cosmos 2098 Rocket 3.4 20:30:33 10° N 20:35:22 70° E 20:39:29 10° S
FengYun 1-2 T 4.2 20:31:47 10° N 20:37:20 65° WNW 20:42:52 10° SSW
Iridium 51 3.5 20:34:26 10° N 20:37:21 58° W 20:40:15 10° S
Cosmos 405 Rocket 3.3 20:35:12 10° S 20:38:20 47° E 20:41:27 10° NNE
ARIANE 6 FM1 Upper Stage 3.7 20:37:24 10° WSW 20:41:03 26° WNW 20:44:37 10° N
Cosmos 2026 Rocket 3.9 20:35:44 10° S 20:41:50 71° W 20:47:51 10° N
Hubble Space Telescope 1.5 20:38:36 10° W 20:42:14 42° S 20:45:53 10° ESE
NOAA 12 4.2 20:38:23 10° NNE 20:43:35 80° ESE 20:48:51 10° S
Cosmos 1634 Rocket 4.3 20:38:03 10° NNW 20:44:05 50° W 20:50:15 10° S
USA 238 DEB 4.2 20:39:21 10° NNW 20:47:38 89° WSW 20:55:34 10° SSE
USA 238 4.2 20:39:28 10° NNW 20:47:45 90° ENE 20:55:40 10° SSE
Cosmos 2228 4.1 20:46:05 11° NW 20:49:15 24° W 20:52:37 10° SSW
Cosmos 2279 Rocket 4.0 20:45:00 10° NNW 20:51:10 68° W 20:57:25 10° S
SL-16 R/B 2.6 20:46:05 10° SSE 20:52:22 90° SSW 20:58:38 10° NNW
Cosmos 990 Rocket 4.0 20:49:04 10° NNW 20:54:18 82° WSW 20:59:34 10° SSE
IRS-1D 3.7 20:53:40 10° N 20:58:50 59° WNW 21:04:07 10° SSW
Cosmos 1939 Rocket 4.0 20:57:03 10° NNW 20:59:50 21° W 21:02:39 10° SW
SEDSat Delta rocket 3.8 21:01:24 10° NW 21:06:46 56° NNE 21:11:29 10° ESE
GOES 2 Rocket 4.2 21:02:04 10° NW 21:08:42 53° NNE 21:13:47 10° E
